{"data":{"norad_id":57935,"epoch":"2026-05-24T22:48:01.266624Z","epoch_age_seconds":83324,"freshness":"FRESH","line1":"1 57935U 23148A   26144.95001466  .00001916  00000+0  67850-4 0  9991","line2":"2 57935  53.1609  29.6878 0001083  80.9731 279.1394 15.34389246150102","mean_motion":15.34389246,"eccentricity":0.0001083,"inclination_deg":53.1609,"raan_deg":29.6878,"arg_perigee_deg":80.9731,"mean_anomaly_deg":279.1394,"bstar":6.785e-5,"rev_number":15010,"period_min":93.848415827596,"perigee_km":461.99433708845,"apogee_km":463.47607000773,"semimajor_km":6840.8722035481,"source":"CELESTRAK","updated_at":"2026-05-25T13:38:18.460075Z"}}